Terug naar catalogus

STARLINK-2391

ActiefCommunicatieVLEO
NORAD 47810·PAYLOAD·🇺🇸 United States

Gelanceerd Mar 11, 2021 vanaf Cape Canaveral Space Force Station

Loading…

Volgende Passages (komende 24 uur)

TLE

VersSource: CelesTrak SupGP

Epoch: Sep 14, 2026, 20:50 UTC

1 47810C 21018Z   26257.86854167 -.00001615  00000+0 -51938-4 0  2570
2 47810  53.1579  95.3189 0001263  88.7535 335.9793 15.31691309    13

Volg STARLINK-2391 in realtime met AllMySat

Download on the App Store